Starlink 1012

operational
NORAD ID: 44718 Int'l Des: 2019-074 Owner: SPXS Country: US Constellation: starlink
LEOCIRCULARSTARLINK_TYPE

Über Starlink 1012

Beschreibung wird geladen...

Live-Position

3D-Globus wird geladen...

Nächste Überflüge

Höhenverlauf

Altitude vs Time

uPlot chart will show altitude changes over time

Zweizeiliger Elementsatz

1 44718U 19074F 26034.13533931 .00000551 00000-0 30742-4 0 9999
2 44718 53.1596 339.3072 0001402 95.3674 264.7487 15.30198844343576
Epoch: 3. Feb. 2026 • Age: 15 hours

Aktueller Status

Höhe 486.4 km
Geschwindigkeit 7.62 km/s
Subsatellitenpunkt -33.25°S, 107.93°W
Startdatum 11. Nov. 2019
Alter 6.2 years
Typ internet

Technische Details

Klassifizierung Payload
Masse 260.00 kg
Trockenmasse 248.00 kg
Gesamtmasse 260.00 kg
Länge 0.20 m
Durchmesser 2.80 m
Spannweite 9.00 m
Form Box + pan
Hersteller SPXS
Bus-Typ Starlink
Phasenstatus In Orbit
Besitzer/Staat SPXS/US

Große Konstellationen

Loading constellations...